Showing default

COSMOS 2489, 39484

Orbit data source: Space-Track

COSMOS 2489, 39484 is a payload satellite owned by VVKO (CIS) in LEO that was launched on Wed, 25 Dec 2013 UTC via an ROKOT launch vehicle from the Plesetsk Missile And Space Complex (PKMTR). Payload-class satellites include a variety of spacecraft equipped with specific instruments for various scientific and technological missions. These include communications satellites like Starlink; space stations such as the ISS; scientific satellites like the Hubble; Earth observation satellites from companies like Planet Labs, Umbra, and HawkEye 360; GPS; miniature CubeSats for education and research; and military/defense satellites.

Loading next visibility...
Identifier
39484, 2013-076B
Orbit
LEO
Country
Flag of CISCIS
Related business
Manufacturer
Resehetnev ISS
Mission
Operational Civil Communications
Bus & Motor
STRELA-3M, Unknown motor
Mass
280 kg wet, 280 kg dry
Launch date (UTC)
2013-12-25 (12 years ago)
Launch vehicle
ROKOT
Launch site
Plesetsk Missile And Space Complex (PKMTR)
Object type
Payload
Rocket body
Debris
Shape & HBR
Cyl + 1 Ant, 3.5 m
Radar Cross Section
1.583 m², Large (>1 m²)

Expand to show TLE details & history
Last TLE update: 6 hours ago

TLE from 6 hours ago
0 COSMOS 2489
1 39484U 13076B   26095.56509645  .00000006  00000-0 -25793-4 0  9994
2 39484  82.4902 215.2867 0020354 251.8858 108.0005 12.42877700556926
Epoch: 2026-04-05T13:33Z
TLE epoch observation values (Epoch: 2026-04-05T13:33:44.333Z)
Latitude
Longitude
177.98328°
Altitude
1,502.109 km
Speed
7.111 km/s
True Right ascension
14h 21m 08s
True Declination
0° 00' 00"
Sunlit
Object was in full shadow at epoch
Visualization orbit readout
Latitude
Unknown
Longitude
Unknown
Altitude
Unknown
Speed
Unknown
Apparent Right ascension
Unknown
Apparent Declination
Unknown
Sunlit
N/A
Visualization observer readout
Local Sidereal Time
01:56:12
Azimuth
Unknown
Elevation
Unknown
Doppler factor
Unknown
Orbital elements
Apogee altitude
1,507.798 km
Perigee altitude
1,475.761 km
Semi-major axis
7,869.916 km
Eccentricity
0.00204
Inclination
82.4902°
RAAN
215.2867°
Arg. of periapsis
251.8858°
True anomaly
108.22215°
Mean anomaly
108.0005°
Eccentric anomaly
108.11134°
Mean motion
3.10877 °/min
Orbital period
115.8 mins
BSTAR
-0.000025793
Loading maneuver chart data...
Computing Atmospheric mass density...
Loading historical data...
Loading historical data...
Loading historical data...
Loading historical data...
Loading historical data...
Loading historical data...
Loading historical data...

Documentation

Showing up to 5 results
|